Regional Weather Roundup
Issued by NWS Newport/Morehead, NC

Current Version | Previous Version | Text Only | Print | Product List | Glossary On
Versions: 1 2 3 4 5 6 7 8 9 10 11 12 13 14 15 16 17 18 19 20 21 22 23 24 25 26 27 28 29 30 31 32 33 34 35 36 37 38 39 40 41 42 43 44 45 46 47 48 49 50
000
ASUS42 KMHX 151713
RWRMHX
WEATHER ROUNDUP FOR EASTERN NORTH CAROLINA
NATIONAL WEATHER SERVICE NEWPORT/MOREHEAD CITY NC
1200 PM EST SUN JAN 15 2017

NOTE: "FAIR" INDICATES FEW OR NO CLOUDS BELOW 12,000 FEET
WITH NO SIGNIFICANT WEATHER AND/OR OBSTRUCTIONS TO VISIBILITY

NCZ015>017-031-032-045>047-102-103-151800-
NORTH COAST

CITY           SKY/WX    TMP DP  RH WIND       PRES   REMARKS
EDENTON        CLOUDY    51  42  70 N8        30.36F
ELIZABETH CITY PTSUNNY   49  39  68 N12       30.36F
KITTY HAWK     NOT AVBL
MANTEO         CLOUDY    44  41  87 N14G21    30.36F

$$

NCZ045>047-081-094-103-104-151800-
CENTRAL COAST

CITY           SKY/WX    TMP DP  RH WIND       PRES   REMARKS
FRISCO         CLOUDY    49  43  80 NE8G16    30.33F HAZE

$$

NCZ095-097-098-100-101-151800-
SOUTHERN COAST

CITY           SKY/WX    TMP DP  RH WIND       PRES   REMARKS
BEAUFORT       CLOUDY    56  45  66 NE12      30.32F
CEDAR ISLAND   NOT AVBL
JACKSONVILLE   NOT AVBL
PINEY ISLAND   PTSUNNY  N/A N/A N/A N12       30.33F
WILMINGTON     CLOUDY    62  51  67 N5        30.30F


$$

NCZ011>013-027>030-043-044-078>080-089-090>093-098-151800-
COASTAL PLAIN

CITY           SKY/WX    TMP DP  RH WIND       PRES   REMARKS
AHOSKIE          N/A     48  32  52 NE7       30.37F
CLINTON        SUNNY     57  46  68 NE8       30.33F
ELIZABETHTOWN  SUNNY     58  48  70 N5        30.31F
GOLDSBORO      CLOUDY    55  44  66 NE10      30.31F
GREENVILLE     CLOUDY    54  43  66 N9        30.35F
HAVELOCK       PTSUNNY   56  45  66 NE8       30.33F
KENANSVILLE    CLOUDY    55  45  67 NE8       30.33F
KINSTON        PTSUNNY   57  45  62 NE10      30.34F
NEW BERN       MOSUNNY   55  43  63 NE12      30.34F
RICHLANDS      CLOUDY    57  45  64 NE10      30.32F
ROCKY MOUNT    CLOUDY    51  41  68 NE7       30.36F
WASHINGTON     MOSUNNY   56  44  64 NE10      30.34F
WHITEVILLE     PTSUNNY   59  51  75 NE5       30.29F

$$

AMZ130-135-150-152-154-156-158-170-250-252-270-ANZ085-086-088-633-658-670-151800-
MARINE OBSERVATIONS

STATION/POSITION TIME  TEMP    WIND        PRES    WAVE   SWELL
                       AIR SEA DIR/SP/G            HT/PER HT/PER
                 (UTC) (F)     (DEG/KT/KT) (MB)    (FT/S) (FT/S)
CHESAPEAKE LIGHT NOT AVBL
64 E VA BEACH    1650   47 62  360/ 19/ 23 1026.6    5/ 5   2/11
DUCK             1642   42 45   10/ 15/ 18 1027.5
2 E DUCK         1700      47                N/A     4/ 4   2/13
OREGON INLET     1642   45 49  350/ 11/ 19 1027.6
13E OREGON INLT  NOT AVBL
HATTERAS CG      1642   47 55   20/ 10/ 16 1026.8
DIAMOND BUOY     1650   51 75   20/ 16/ 19 1026.6    4/11   3/11
CAPE LOOKOUT     1700   53      30/ 10/ 12 1026.2
BEAUFORT LAB     1642   54 49   40/  7/ 10 1025.7
30 SE NEW RVR IN 1608   56 65   20/  6/  8 1027.2
30 SE NEW RVR IN 1643      65                N/A     3/11   2/11
27 SE WRIGHTSVLE 1608   60 71   20/  6/ 12 1026.9
5 SE WRIGHTSVLE  1608   53      50/ 12/ 16 1027.0
225 S CAPE HAT   1650   70 71  340/  6/  8 1025.2    5/ 8   5/ 8
41 SE CHARLESTON 1550   66 71  260/ 10/ 12 1026.7    4/10   3/10

$$




USA.gov is the U.S. government's official web portal to all federal, state and local government web resources and services.